DECAYED

SL-4 R/B, 64752 (Decayed)

Orbit data source: Space-Track

SL-4 R/B, 64752 was space debris in LEO originally from a launch on Thu, 03 Jul 2025 UTC launched from the Tyuratam Missile And Space Complex (TTMTR). Debris objects in space refer to the collection of defunct objects orbiting the Earth. Examples of debris include non-operational satellites, rocket bodies, and fragments generated from explosions, collisions, or faulty payload assembly.

Not visible in the next 10 days
Identifier
64752, 2025-146B
Orbit
Decayed
Last TLE update
2 weeks ago
Origin
Flag of CISRVSNR (CIS)
Manufacturer
TsSKB-Progress
Mission
Decayed spacecraft
Bus & Motor
BLOK-I, RD-0980
Mass
~2,350 kg wet, 2,350 kg dry
Launch date (UTC)
2025-07-03 (2 weeks ago)
Launch vehicle
Unknown
Launch site
Tyuratam Missile And Space Complex (TTMTR)
Object type
Payload
Rocket body
Debris
Shape & HBR
Unknown
Radar Cross Section
Large (>1 m²)

Expand to show TLE details & history

TLE from 2 weeks ago
0 SL-4 R/B
1 64752U 25145B   25186.48862154  .10330136  12471-4  57919-3 0  9991
2 64752  51.6522 215.8577 0007651  81.6957  88.7713 16.41931275   279
Epoch: 2025-07-05T11:43Z
TLE epoch observation values (Epoch: 2025-07-05T11:43:36.901Z)
Latitude
7.36199°
Longitude
-69.60471°
Altitude
160.68 km
Speed
7.812 km/s
True Right ascension
02h 00m 05s
True Declination
7° 18' 52"
Sunlit
Object was in daylight at epoch
Visualization orbit readout
Visualization observer readout
Orbital elements
Apogee altitude
166.199 km
Perigee altitude
156.192 km
Semi-major axis
6,539.332 km
Eccentricity
0.00077
Inclination
51.6522°
RAAN
215.8577°
Arg. of periapsis
81.6957°
True anomaly
88.85896°
Mean anomaly
88.7713°
Eccentric anomaly
88.81513°
Mean motion
4.10434 °/min
Orbital period
87.71 mins
BSTAR
0.00057919
Loading maneuver chart data...
Loading SW <> Apogee altitude chart data...
Loading historical data...
Loading historical data...
Loading historical data...
Loading historical data...
Loading historical data...
Loading historical data...
Loading historical data...
Other satellites on launch #146 in the year 2025 (2025-07-03 UTC)
|